[[{"header":{"parameterUnit":"m.s-1","parameterCategory":1,"la1":30.2991,"la2":30.254,"lo1":-89.0895,"lo2":-89.0444,"dy":0.0017,"dx":0.0017,"nx":28,"ny":28,"refTime":"2025-08-04T21:00:00:Z","depth":0,"parameterNumber":2,"parameterNumberName":"U-component_of_WINDS"},"data":[0,0,0,0,0,0,0,0,0,0,0,0,0,0,0,0,0,0,0,0,0,0,0,0,0,0,0,0,0,0,0,0,0,0,0,0,0,0,0,0,0,0,0,0,0,0,0,0,0,0,0,0,0,0,0,0,0,0,-2.7388,-2.7388,0,-2.7385,-2.7385,-2.7385,-2.7277,-2.7274,-2.7271,-2.7268,-2.727,-2.7272,-2.7275,0,0,0,0,0,0,0,0,0,0,0,0,0,-2.7305,-2.7307,-2.7388,-2.7388,-2.7388,-2.7385,-2.7385,-2.7384,-2.7277,-2.7274,-2.727,-2.7267,-2.7269,-2.7272,-2.7275,0,0,0,0,0,0,0,0,0,0,0,0,0,-2.7325,-2.7308,-2.7388,-2.7334,-2.7329,-2.7385,-2.7385,-2.7384,-2.7278,-2.7274,-2.727,-2.7266,-2.7268,-2.7272,-2.7275,-2.7384,0,0,-2.7288,-2.7289,0,0,0,0,0,0,0,0,-2.7324,-2.7329,-2.7342,-2.7338,-2.7332,-2.7327,-2.7355,-2.7385,-2.7279,-2.7298,-2.7268,-2.7264,-2.7292,-2.7294,-2.7303,-2.7384,-2.7384,-2.7288,-2.729,-2.7292,-2.7293,0,0,0,0,0,0,0,-2.7323,-2.7328,-2.7387,-2.7342,-2.7336,-2.7311,-2.7309,-2.736,-2.7319,-2.7296,-2.7288,-2.7289,-2.7289,-2.7299,-2.7302,-2.7384,-2.7288,-2.7291,-2.7294,-2.7295,-2.7552,-2.7557,0,0,0,0,0,0,-2.7329,-2.7328,-2.7387,-2.7387,-2.7318,-2.7316,-2.7314,-2.7333,-2.7318,-2.7311,-2.7292,-2.7284,-2.7294,-2.7297,-2.7302,-2.7426,-2.7292,-2.7296,-2.7298,-2.7548,-2.7553,-2.7558,0,0,0,0,0,0,-2.7327,-2.7335,-2.7387,-2.7355,-2.736,-2.7322,-2.7344,-2.7335,-2.7345,-2.7315,-2.7307,-2.731,-2.7291,-2.7296,-2.7363,-2.7425,-2.7298,-2.7301,-2.7543,-2.755,-2.7556,-2.7677,0,0,0,0,0,0,-2.7325,-2.7335,-2.7375,-2.7357,-2.7362,-2.7449,-2.7348,-2.7338,-2.7352,-2.734,-2.733,-2.7324,-2.7288,-2.7358,-2.7368,-2.7428,-2.7304,-2.7537,-2.7546,-2.7554,-2.7667,-2.7687,-2.7704,0,0,0,0,0,-2.7323,-2.7411,-2.7378,-2.7386,-2.7411,-2.7452,-2.7455,-2.7411,-2.7357,-2.7397,-2.7378,-2.7325,-2.7417,-2.7366,-2.7376,-2.7438,-2.7533,-2.7543,-2.7553,-2.7659,-2.7683,-2.7703,0,0,0,0,0,0,-2.7441,-2.7408,-2.7371,-2.7456,-2.7457,-2.7434,-2.7484,-2.7438,-2.7456,-2.7445,-2.7391,-2.7389,-2.7465,-2.7458,-2.7403,-2.7541,-2.7465,-2.7478,-2.7543,-2.7565,-2.7583,-2.7583,-2.7308,0,0,0,0,0,-2.7476,-2.7511,-2.7481,-2.7559,-2.7561,-2.7523,-2.7539,-2.7504,-2.7505,-2.7505,-2.7491,-2.7494,-2.7523,-2.7544,-2.757,-2.7666,-2.7662,-2.7714,-2.7732,-2.7747,-2.7758,-2.7807,-2.7829,-2.7591,-2.7591,-2.7591,0,0,-2.7551,-2.7537,-2.7563,-2.7582,-2.7579,-2.7617,-2.7524,-2.7569,-2.7596,-2.7513,-2.7574,-2.7564,-2.7564,-2.7646,-2.7682,-2.7643,-2.7823,-2.776,-2.7772,-2.7775,-2.7819,-2.7842,-2.7862,-2.7598,-2.7597,-2.7595,0,0,-2.7705,-2.7699,-2.7762,-2.776,-2.7756,-2.7729,-2.7745,-2.7728,-2.7717,-2.7778,-2.7715,-2.7748,-2.78,-2.7802,-2.781,-2.7963,-2.7914,-2.7973,-2.8068,-2.8116,-2.8135,-2.8151,-2.8205,-2.8225,-2.7985,-2.7985,-2.7985,0,-2.7799,-2.7852,-2.7801,-2.7848,-2.7858,-2.7782,-2.7845,-2.7847,-2.7853,-2.7862,-2.7818,-2.788,-2.7875,-2.7955,-2.7992,-2.8002,-2.8017,-2.7974,-2.8136,-2.8152,-2.8167,-2.8217,-2.8237,-2.7992,-2.7991,-2.799,-2.799,0,-2.7966,-2.8004,-2.8056,-2.806,-2.8076,-2.8132,-2.8089,-2.8112,-2.8076,-2.8054,-2.8116,-2.8107,-2.8128,-2.8145,-2.8111,-2.8221,-2.8196,-2.8146,-2.8068,-2.8197,-2.8243,-2.8262,-2.8002,-2.8,-2.7997,-2.7996,0,0,-2.8196,-2.8169,-2.8189,-2.8189,-2.8178,-2.8207,-2.8259,-2.8278,-2.8297,-2.8304,-2.8346,-2.8391,-2.8343,-2.8352,-2.8317,-2.836,-2.848,-2.8303,-2.8302,-2.8335,-2.8598,-2.8635,-2.8658,-2.8447,-2.8451,-2.8454,-2.8597,0,-2.8344,-2.8429,-2.8384,-2.8476,-2.8509,-2.8436,-2.8481,-2.848,-2.8461,-2.8487,-2.8467,-2.8498,-2.8434,-2.8438,-2.8477,-2.8457,-2.8532,-2.8446,-2.8486,-2.8488,-2.8487,-2.8683,-2.8723,-2.8859,-2.8615,-2.8618,-2.862,0,-2.8529,-2.854,-2.8634,-2.8614,-2.8627,-2.8668,-2.868,-2.8707,-2.8704,-2.8686,-2.8696,-2.8651,-2.87,-2.8624,-2.8692,-2.8635,-2.8648,-2.8641,-2.8645,-2.8646,-2.8562,-2.8688,-2.8901,-2.8921,-2.8649,-2.8646,-2.8644,0,-2.8685,-2.8724,-2.8784,-2.8787,-2.8766,-2.8797,-2.879,-2.8782,-2.8795,-2.8807,-2.8815,-2.8834,-2.8843,-2.8859,-2.882,-2.8768,-2.8893,-2.8813,-2.888,-2.8881,-2.8909,-2.8907,-2.9126,-2.892,-2.892,-2.8919,-2.8919,0,-2.8855,-2.8915,-2.8854,-2.8891,-2.8956,-2.8904,-2.897,-2.8956,-2.8949,-2.8983,-2.8922,-2.8955,-2.8902,-2.893,-2.89,-2.896,-2.8966,-2.8953,-2.8945,-2.8958,-2.896,-2.8966,-2.8955,-2.8925,-2.8924,-2.8923,-2.8922,0,-2.904,-2.9002,-2.9063,-2.9037,-2.9032,-2.9081,-2.9059,-2.9093,-2.9069,-2.9112,-2.9119,-2.9082,-2.9112,-2.9074,-2.9102,-2.9081,-2.9162,-2.914,-2.9163,-2.9156,-2.9224,-2.9217,-2.9453,-2.948,-2.9259,-2.9261,-2.9263,0,-2.9151,-2.9195,-2.9172,-2.9189,-2.9185,-2.9214,-2.9226,-2.9176,-2.9192,-2.919,-2.9224,-2.9248,-2.9265,-2.9316,-2.9292,-2.9312,-2.9289,-2.937,-2.9292,-2.9303,-2.9288,-2.9285,-2.9289,-2.9386,-2.9389,-2.9391,-2.9393,0,-2.935,-2.9328,-2.9347,-2.9359,-2.9375,-2.9383,-2.9387,-2.9405,-2.9352,-2.9373,-2.9401,-2.9414,-2.944,-2.9464,-2.9477,-2.9471,-2.9424,-2.9417,-2.9433,-2.9447,-2.9458,-2.9451,-2.9205,-2.9412,-2.941,-2.9409,-2.9408,-2.9407,-2.95,-2.9535,-2.9523,-2.9547,-2.9543,-2.9548,-2.9577,-2.9555,-2.9577,-2.9593,-2.9562,-2.9598,-2.9592,-2.9604,-2.9604,-2.9631,-2.9596,-2.962,-2.9626,-2.9632,-2.9642,-2.9454,-2.9634,-2.9633,-2.9633,-2.9632,-2.9632,0,-2.9694,-2.9683,-2.9704,-2.971,-2.9728,-2.9679,-2.968,-2.9699,-2.973,-2.9728,-2.9744,-2.9776,-2.9799,-2.9776,-2.9795,-2.9821,-2.98,-2.9828,-2.9825,-2.9824,-2.9673,-2.9656,-2.9845,-2.9845,-2.9844,-2.9844,-2.9844,-2.9844,-2.9798,-2.9853,-2.983,-2.9883,-2.9871,-2.9903,-2.9908,-2.9911,-2.9909,-2.9946,-2.9964,-2.9948,-2.9938,-2.9954,-2.9973,-2.9966,-2.9975,-3.0011,-2.9996,-2.9855,-2.9835,-2.9815,-2.9798,-3.0014,-3.0014,-3.0144,-3.0145,-3.0146]},{"header":{"parameterUnit":"m.s-1","parameterCategory":1,"la1":30.2991,"la2":30.254,"lo1":-89.0895,"lo2":-89.0444,"dy":0.0017,"dx":0.0017,"nx":28,"ny":28,"refTime":"2025-08-04T21:00:00:Z","depth":0,"parameterNumber":3,"parameterNumberName":"V-component_of_WINDS"},"data":[0,0,0,0,0,0,0,0,0,0,0,0,0,0,0,0,0,0,0,0,0,0,0,0,0,0,0,0,0,0,0,0,0,0,0,0,0,0,0,0,0,0,0,0,0,0,0,0,0,0,0,0,0,0,0,0,0,0,-2.115,-2.1149,0,-2.1079,-2.1079,-2.1078,-2.1041,-2.1041,-2.1041,-2.1041,-2.0965,-2.0963,-2.0961,0,0,0,0,0,0,0,0,0,0,0,0,0,-2.1248,-2.1246,-2.115,-2.1149,-2.1149,-2.108,-2.1079,-2.1078,-2.1041,-2.1041,-2.1041,-2.1041,-2.0966,-2.0963,-2.0961,0,0,0,0,0,0,0,0,0,0,0,0,0,-2.1194,-2.1246,-2.115,-2.1122,-2.1119,-2.108,-2.1079,-2.1077,-2.1041,-2.1041,-2.1041,-2.1041,-2.0966,-2.0964,-2.0961,-2.0943,0,0,-2.0951,-2.095,0,0,0,0,0,0,0,0,-2.1197,-2.1191,-2.1127,-2.1124,-2.112,-2.1069,-2.1085,-2.1032,-2.1041,-2.1071,-2.1041,-2.1041,-2.0999,-2.0994,-2.098,-2.0939,-2.0936,-2.0951,-2.0949,-2.0948,-2.0947,0,0,0,0,0,0,0,-2.1201,-2.1193,-2.1122,-2.1126,-2.1122,-2.1111,-2.1103,-2.1075,-2.1036,-2.1068,-2.1065,-2.1058,-2.0998,-2.0983,-2.0978,-2.0935,-2.0951,-2.0948,-2.0947,-2.0945,-2.0871,-2.0871,0,0,0,0,0,0,-2.121,-2.1197,-2.1124,-2.112,-2.116,-2.1109,-2.1101,-2.1086,-2.1036,-2.1029,-2.1058,-2.1056,-2.0989,-2.0982,-2.0976,-2.0949,-2.0948,-2.0945,-2.0943,-2.0871,-2.0871,-2.0871,0,0,0,0,0,0,-2.1212,-2.1204,-2.1127,-2.1158,-2.1147,-2.1108,-2.1091,-2.1084,-2.107,-2.1029,-2.1021,-2.1051,-2.0988,-2.098,-2.095,-2.0946,-2.0944,-2.0941,-2.0871,-2.0871,-2.0871,-2.0897,0,0,0,0,0,0,-2.1215,-2.1205,-2.12,-2.1158,-2.1146,-2.1105,-2.1091,-2.1083,-2.1066,-2.1063,-2.102,-2.1013,-2.0988,-2.0955,-2.0947,-2.0941,-2.0939,-2.0871,-2.0871,-2.0871,-2.0896,-2.0898,-2.0899,0,0,0,0,0,-2.1219,-2.121,-2.1199,-2.1191,-2.1138,-2.1105,-2.1098,-2.107,-2.1066,-2.1058,-2.1031,-2.1014,-2.0948,-2.0953,-2.0944,-2.0937,-2.0871,-2.0871,-2.0871,-2.0896,-2.0897,-2.0899,0,0,0,0,0,0,-2.1251,-2.1204,-2.1192,-2.1169,-2.1142,-2.1099,-2.109,-2.1074,-2.1046,-2.1044,-2.101,-2.1,-2.0973,-2.0952,-2.0958,-2.0914,-2.0908,-2.0905,-2.093,-2.0931,-2.0932,-2.0937,-2.0936,0,0,0,0,0,-2.1256,-2.1235,-2.1194,-2.1178,-2.1165,-2.113,-2.1114,-2.1095,-2.1065,-2.1052,-2.1023,-2.0992,-2.0964,-2.0946,-2.0918,-2.0893,-2.0881,-2.0883,-2.0885,-2.0886,-2.0884,-2.0865,-2.0865,-2.0869,-2.0869,-2.0869,0,0,-2.1265,-2.1237,-2.1225,-2.1184,-2.116,-2.1137,-2.112,-2.1097,-2.1078,-2.1048,-2.1019,-2.0996,-2.0959,-2.0931,-2.0917,-2.0912,-2.088,-2.0885,-2.0887,-2.0884,-2.0865,-2.0864,-2.0864,-2.0869,-2.0869,-2.0869,0,0,-2.127,-2.1247,-2.123,-2.1206,-2.1171,-2.1147,-2.1143,-2.1102,-2.1086,-2.1056,-2.1031,-2.1008,-2.0961,-2.0935,-2.0915,-2.0907,-2.0889,-2.0898,-2.0904,-2.0886,-2.0886,-2.0886,-2.088,-2.0878,-2.0897,-2.0897,-2.0897,0,-2.1285,-2.1251,-2.1223,-2.12,-2.1181,-2.1153,-2.1134,-2.1111,-2.1068,-2.1054,-2.105,-2.0988,-2.0962,-2.0925,-2.0923,-2.0909,-2.0901,-2.0903,-2.0889,-2.0888,-2.0887,-2.0881,-2.0879,-2.0898,-2.0898,-2.0898,-2.0898,0,-2.127,-2.1247,-2.1237,-2.1196,-2.1176,-2.1155,-2.1121,-2.1103,-2.1085,-2.1061,-2.1028,-2.0995,-2.0959,-2.0949,-2.0931,-2.0908,-2.0906,-2.0896,-2.0888,-2.0888,-2.0882,-2.0879,-2.09,-2.0899,-2.0899,-2.0899,0,0,-2.1295,-2.1237,-2.1234,-2.1213,-2.1171,-2.1151,-2.1127,-2.1092,-2.1076,-2.1046,-2.1023,-2.0983,-2.0972,-2.095,-2.0928,-2.0913,-2.0904,-2.0903,-2.0902,-2.0903,-2.0873,-2.088,-2.0879,-2.0892,-2.0892,-2.0891,-2.0876,0,-2.1292,-2.125,-2.1222,-2.119,-2.1166,-2.1138,-2.1116,-2.1086,-2.1062,-2.1036,-2.1009,-2.098,-2.0969,-2.0955,-2.0939,-2.0909,-2.0897,-2.091,-2.0868,-2.0867,-2.0877,-2.0876,-2.0884,-2.0871,-2.0873,-2.0873,-2.0873,0,-2.1283,-2.1254,-2.122,-2.1177,-2.1166,-2.1148,-2.1111,-2.1088,-2.1052,-2.1035,-2.1009,-2.0987,-2.0957,-2.0952,-2.0909,-2.0918,-2.0899,-2.0881,-2.088,-2.0874,-2.0869,-2.0868,-2.0866,-2.0864,-2.0869,-2.0869,-2.0869,0,-2.1302,-2.1254,-2.1227,-2.121,-2.116,-2.1148,-2.1126,-2.109,-2.1069,-2.1037,-2.1022,-2.0987,-2.0967,-2.0938,-2.0905,-2.0905,-2.0864,-2.0857,-2.0847,-2.0848,-2.0839,-2.084,-2.0833,-2.083,-2.083,-2.083,-2.083,0,-2.13,-2.128,-2.1234,-2.1217,-2.1192,-2.1159,-2.1134,-2.111,-2.1077,-2.1053,-2.1026,-2.1003,-2.0962,-2.0933,-2.0907,-2.0873,-2.0865,-2.0848,-2.0841,-2.085,-2.0852,-2.0836,-2.0836,-2.0829,-2.0829,-2.083,-2.083,0,-2.1317,-2.1286,-2.1253,-2.1208,-2.1196,-2.1179,-2.1139,-2.112,-2.1094,-2.1063,-2.1053,-2.1012,-2.0976,-2.094,-2.0892,-2.0874,-2.084,-2.0832,-2.0853,-2.0849,-2.084,-2.0841,-2.0822,-2.0816,-2.0818,-2.0819,-2.0819,0,-2.1318,-2.1301,-2.1254,-2.1236,-2.1215,-2.1187,-2.1166,-2.1131,-2.111,-2.1065,-2.1051,-2.1013,-2.0981,-2.0925,-2.0888,-2.085,-2.084,-2.0835,-2.0834,-2.0842,-2.0837,-2.0837,-2.0834,-2.0836,-2.0836,-2.0837,-2.0837,0,-2.1322,-2.1306,-2.1278,-2.1243,-2.1218,-2.1189,-2.1158,-2.1144,-2.1103,-2.108,-2.1043,-2.1019,-2.0969,-2.093,-2.0888,-2.0862,-2.0841,-2.0837,-2.0833,-2.0841,-2.0853,-2.0844,-2.0854,-2.0838,-2.0838,-2.0838,-2.0838,-2.0838,-2.1329,-2.1312,-2.1275,-2.1243,-2.1216,-2.1187,-2.1166,-2.1137,-2.1107,-2.1064,-2.1045,-2.1007,-2.0968,-2.0908,-2.0883,-2.085,-2.0845,-2.0839,-2.0837,-2.0836,-2.0836,-2.0859,-2.0843,-2.0843,-2.0843,-2.0843,-2.0842,0,-2.1329,-2.1304,-2.1275,-2.1233,-2.1206,-2.1191,-2.1155,-2.1133,-2.1101,-2.1067,-2.1035,-2.0991,-2.0953,-2.0913,-2.0872,-2.0854,-2.0843,-2.0844,-2.0844,-2.0838,-2.0845,-2.0852,-2.0853,-2.0853,-2.0853,-2.0853,-2.0853,-2.0853,-2.1327,-2.1296,-2.1276,-2.123,-2.1204,-2.1168,-2.1148,-2.112,-2.1092,-2.1045,-2.1014,-2.0988,-2.095,-2.0905,-2.0868,-2.0857,-2.0842,-2.0846,-2.0831,-2.0839,-2.0838,-2.0837,-2.0844,-2.0843,-2.0843,-2.0827,-2.0827,-2.0827]}]]